x

8454000 - Providence, Ri (foxr1) Weather Station

2:30 - Fri 4th Sep 2015 All times are EDT. -4 hours from GMT.

  • Wind
    16mph, 18mph gusts
  • Sea Temp 74°f
  • Air Temp 73°f
  • Sea Pressure 1020.5mb
  • 8454000 - Providence, Ri
  • 8454000 - Providence, Ri

More Historic Weather Station data

Upgrade to MSW Pro to gain access to the past 30 days of data for over 8000 Wavebouys and Weather Stations around the globe.

Join Pro

Comparision Forecast

View Surf forecast
   
ven. 09/04 2:30 16 18 mph 1020.5mb 74f 73f
2:24 15 20 mph 1020.5mb 74f 73f
2:18 17 20 mph 1020.5mb 74f 73f
2:12 10 18 mph 1020.4mb 74f 73f
2:06 14 21 mph 1020.4mb 74f 72f
2:00 17 23 mph 1020.3mb 74f 72f
1:54 17 22 mph 1020.3mb 74f 72f
1:48 16 23 mph 1020.3mb 74f 72f
1:42 14 23 mph 1020.3mb 74f 72f
1:36 17 25 mph 1020.3mb 74f 72f
1:30 21 24 mph 1020.1mb 74f 72f
1:24 20 24 mph 1020mb 74f 73f
1:18 20 24 mph 1020mb 74f 73f
1:12 15 21 mph 1020.1mb 74f 73f
1:06 15 21 mph 1020.1mb 74f 73f
1:00 17 23 mph 1020mb 74f 73f
12:54 15 21 mph 1020mb 74f 73f
12:48 16 21 mph 1020mb 74f 73f
12:42 16 21 mph 1020mb 74f 73f
12:36 13 21 mph 1020.1mb 74f 73f
12:30 17 21 mph 1020mb 74f 73f
12:24 17 21 mph 1020mb 74f 73f
12:18 16 20 mph 1020mb 74f 73f
12:12 14 18 mph 1019.9mb 74f 72f
12:06 11 17 mph 1019.9mb 74f 73f
12:00 14 18 mph 1020mb 74f 72f
11:54 14 20 mph 1019.9mb 74f 72f
11:48 15 21 mph 1019.9mb 74f 71f
11:42 15 18 mph 1019.7mb 74f 71f
11:36 17 21 mph 1019.7mb 75f 71f
11:30 17 21 mph 1019.6mb 75f 71f
11:24 16 21 mph 1019.6mb 75f 71f
11:18 14 18 mph 1019.6mb 75f 71f
11:12 16 21 mph 1019.6mb 75f 71f
11:06 14 20 mph 1019.6mb 75f 71f
11:00 16 20 mph 1019.6mb 75f 71f
10:54 16 23 mph 1019.5mb 75f 71f
10:48 18 22 mph 1019.5mb 75f 70f
10:42 15 21 mph 1019.4mb 75f 70f
10:36 17 22 mph 1019.3mb 75f 70f
10:30 14 21 mph 1019.3mb 75f 71f
10:24 15 18 mph 1019.2mb 75f 71f
10:18 11 18 mph 1019.1mb 75f 71f
10:12 11 20 mph 1019mb 75f 70f
10:06 13 17 mph 1019mb 75f 70f
10:00 14 18 mph 1019mb 75f 70f
9:54 11 17 mph 1018.8mb 75f 69f
9:48 10 18 mph 1018.8mb 75f 69f
9:42 15 20 mph 1018.9mb 75f 69f
9:36 14 18 mph 1018.8mb 75f 69f
9:30 11 20 mph 1018.7mb 75f 69f
9:24 13 17 mph 1018.6mb 75f 69f
9:18 14 20 mph 1018.6mb 75f 69f
9:12 14 18 mph 1018.5mb 75f 68f
9:06 14 18 mph 1018.4mb 75f 68f
9:00 13 20 mph 1018.4mb 75f 68f
8:54 15 22 mph 1018.4mb 75f 68f
8:48 14 22 mph 1018.2mb 75f 68f
8:42 17 23 mph 1018.1mb 75f 68f
8:36 17 22 mph 1018mb 75f 68f
8:30 17 24 mph 1018mb 75f 68f
8:24 18 22 mph 1017.9mb 75f 68f
8:18 21 28 mph 1018mb 75f 68f
8:12 17 23 mph 1018mb 75f 68f
8:06 18 28 mph 1017.9mb 75f 68f
8:00 15 24 mph 1017.7mb 75f 68f
7:54 18 26 mph 1017.7mb 75f 68f
7:48 15 24 mph 1017.6mb 75f 68f
7:42 17 21 mph 1017.6mb 75f 68f
7:36 17 24 mph 1017.4mb 76f 68f
7:30 15 20 mph 1017.3mb 76f 68f
7:24 18 22 mph 1017.1mb 76f 68f
7:18 16 20 mph 1017mb 76f 69f
7:12 16 22 mph 1016.8mb 76f 69f
7:06 16 24 mph 1016.7mb 76f 69f
7:00 16 24 mph 1016.5mb 76f 69f
6:54 18 30 mph 1016.4mb 76f 69f
6:48 22 29 mph 1016.2mb 76f 69f
6:42 20 24 mph 1016.1mb 76f 70f
6:36 18 25 mph 1016mb 76f 70f
6:30 21 26 mph 1015.9mb 76f 71f
6:24 15 22 mph 1015.6mb 76f 71f
6:18 14 18 mph 1015.5mb 76f 72f
6:12 16 21 mph 1015.4mb 76f 72f
6:06 15 18 mph 1015.2mb 76f 72f
6:00 10 21 mph 1015mb 76f 72f
5:54 15 20 mph 1014.9mb 76f 72f
5:48 13 20 mph 1014.7mb 76f 72f
5:42 13 18 mph 1014.7mb 76f 72f
5:36 13 18 mph 1014.4mb 77f 72f
5:30 14 20 mph 1014.3mb 77f 73f
5:24 13 17 mph 1014.2mb 77f 73f
5:18 13 16 mph 1014.1mb 77f 73f
5:12 13 18 mph 1014.1mb 77f 73f
5:06 14 17 mph 1014mb 77f 73f
5:00 13 16 mph 1014mb 77f 73f
4:54 11 16 mph 1013.9mb 77f 73f
4:48 13 20 mph 1013.8mb 77f 74f
4:42 10 13 mph 1013.8mb 77f 74f
4:36 9 13 mph 1013.6mb 76f 73f
4:30 10 13 mph 1013.6mb 76f 73f
4:24 11 13 mph 1013.5mb 76f 73f
4:18 10 14 mph 1013.4mb 76f 74f
4:12 9 13 mph 1013.4mb 76f 74f
4:06 9 10 mph 1013.3mb 76f 74f
4:00 8 11 mph 1013.2mb 76f 74f
3:54 10 13 mph 1013.1mb 76f 74f
3:48 9 13 mph 1013mb 76f 74f
3:42 9 10 mph 1013mb 76f 74f
3:36 8 11 mph 1012.9mb 76f 74f
3:30 10 11 mph 1012.8mb 76f 74f
3:24 8 10 mph 1012.8mb 76f 74f
3:18 9 10 mph 1012.8mb 76f 74f
3:12 8 10 mph 1012.7mb 76f 74f
3:06 7 10 mph 1012.6mb 76f 74f
3:00 7 9 mph 1012.6mb 76f 74f
2:54 6 10 mph 1012.6mb 76f 75f
2:48 6 10 mph 1012.6mb 76f 75f
2:42 8 9 mph 1012.6mb 76f 75f
2:36 6 9 mph 1012.7mb 76f 75f
2:30 6 8 mph 1012.6mb 75f 75f
2:24 5 6 mph 1012.6mb 75f 75f
2:18 6 7 mph 1012.5mb 75f 75f
2:12 5 8 mph 1012.4mb 75f 76f
2:06 8 9 mph 1012.5mb 75f 76f
2:00 7 8 mph 1012.5mb 75f 76f
1:54 3 6 mph 1012.4mb 75f 76f
1:48 5 7 mph 1012.3mb 75f 76f
1:42 5 7 mph 1012.3mb 75f 76f
1:36 6 8 mph 1012.4mb 75f 76f
1:30 8 10 mph 1012.4mb 75f 76f
1:24 9 10 mph 1012.4mb 75f 76f
1:18 8 11 mph 1012.4mb 75f 76f
1:12 9 11 mph 1012.4mb 75f 77f
1:06 7 8 mph 1012.3mb 75f 77f
1:00 7 8 mph 1012.3mb 75f 77f
12:54 6 7 mph 1012.2mb 75f 78f
12:48 6 7 mph 1012.1mb 75f 78f
12:42 5
mph
1012mb 75f 78f
12:36 3 5 mph 1012.1mb 75f 78f
12:30 5
mph
1012mb 75f 78f
12:24 3 5 mph 1011.9mb 75f 78f
12:18 2 3 mph 1011.8mb 75f 78f
12:12 5 8 mph 1011.8mb 75f 78f
12:06 6 9 mph 1011.8mb 75f 78f
12:00 7 8 mph 1011.8mb 75f 77f
jeu. 09/03 11:54 7 9 mph 1011.7mb 75f 77f
11:48 8 11 mph 1011.8mb 75f 77f
11:42 10 11 mph 1011.8mb 75f 77f
11:36 9 13 mph 1011.9mb 75f 77f
11:30 10 11 mph 1012mb 75f 78f
11:24 6
mph
1011.9mb 75f 77f
11:18 5 6 mph 1011.8mb 75f 77f
11:12 2
mph
1011.8mb 75f 77f
11:06  -  1 mph 1011.7mb 75f 77f
11:00  -  2 mph 1011.6mb 75f 77f
10:54 1 3 mph 1011.6mb 75f 77f
10:48 2 5 mph 1011.5mb 75f 77f
10:42 3 5 mph 1011.4mb 75f 77f
10:36 3
mph
1011.3mb 75f 77f
10:30 3 5 mph 1011.3mb 75f 77f
10:24 5 6 mph 1011.2mb 75f 77f
10:18 3
mph
1011.2mb 75f 78f
10:12 3 5 mph 1011.2mb 75f 77f
10:06 5 6 mph 1011.1mb 76f 78f
10:00 5
mph
1011.1mb 76f 77f
9:54 3
mph
1011.2mb 76f 78f
9:48 2 5 mph 1011.1mb 76f 78f
9:42 5 6 mph 1011.1mb 76f 78f
9:36 3 5 mph 1011.1mb 76f 78f
9:30 3 5 mph 1011mb 76f 78f
9:24 3 5 mph 1011mb 76f 78f
9:18 3 5 mph 1010.9mb 77f 78f
9:12 3 5 mph 1010.8mb 77f 78f
9:06 2
mph
1010.8mb 77f 78f
9:00 2 6 mph 1010.6mb 77f 78f
8:54 5 7 mph 1010.5mb 77f 78f
8:48 7 8 mph 1010.5mb 77f 79f
8:42 6 7 mph 1010.5mb 77f 79f
8:36 5 6 mph 1010.4mb 77f 79f
8:30 3 5 mph 1010.3mb 77f 79f
8:24 6 7 mph 1010.1mb 77f 79f
8:18 7 9 mph 1010mb 77f 80f
8:12 7 8 mph 1010mb 77f 80f
8:06 7 8 mph 1009.8mb 77f 79f
8:00 8 9 mph 1009.7mb 77f 79f
7:54 6 7 mph 1009.7mb 77f 79f
7:48 7
mph
1009.7mb 77f 79f
7:42 6 7 mph 1009.7mb 76f 80f
7:36 6 7 mph 1009.6mb 76f 80f
7:30 7
mph
1009.6mb 76f 80f
7:24 6 7 mph 1009.6mb 76f 80f
7:18 6
mph
1009.6mb 76f 80f
7:12 5 6 mph 1009.6mb 76f 81f
7:06 5 7 mph 1009.6mb 77f 81f
7:00 6 7 mph 1009.5mb 77f 81f
6:54 6
mph
1009.5mb 77f 81f
6:48 6 8 mph 1009.5mb 77f 81f
6:42 8 10 mph 1009.5mb 77f 82f
6:36 8 9 mph 1009.5mb 77f 83f
6:30 8 9 mph 1009.4mb 77f 83f
6:24 7 10 mph 1009.4mb 77f 83f
6:18 9 10 mph 1009.5mb 77f 83f
6:12 7 8 mph 1009.5mb 77f 83f
6:06 7 9 mph 1009.5mb 77f 84f
6:00 7 9 mph 1009.4mb 77f 84f
5:54 6 9 mph 1009.5mb 77f 85f
5:48 10 11 mph 1009.4mb 77f 85f
5:42 8 11 mph 1009.3mb 77f 85f
5:36 7 13 mph 1009.2mb 77f 85f
5:30 8 11 mph 1009.1mb 77f 85f
5:24 10 13 mph 1009.1mb 77f 85f
5:18 7 11 mph 1009mb 77f 85f
5:12 8 11 mph 1009mb 77f 85f
5:06 7 11 mph 1009mb 77f 85f
5:00 8 11 mph 1009.1mb 77f 85f
4:54 9 13 mph 1009mb 77f 85f
4:48 8 11 mph 1009mb 77f 86f
4:42 9 14 mph 1008.9mb 76f 86f
4:36 8 11 mph 1008.9mb 76f 86f
4:30 8 14 mph 1008.8mb 76f 86f
4:24 9 13 mph 1008.9mb 76f 86f
4:18 9 11 mph 1008.8mb 76f 86f
4:12 9 13 mph 1008.8mb 76f 86f
4:06 10 13 mph 1008.8mb 76f 87f
4:00 9 15 mph 1008.9mb 76f 86f
3:54 8 10 mph 1008.9mb 76f 86f
3:48 7 11 mph 1008.8mb 76f 86f
3:42 6 10 mph 1008.7mb 76f 86f
3:36 7 13 mph 1008.7mb 76f 87f
3:30 9 13 mph 1008.7mb 76f 86f
3:24 10 13 mph 1008.7mb 76f 87f
3:18 8 13 mph 1008.7mb 76f 86f
3:12 8 13 mph 1008.7mb 76f 86f
3:06 10 13 mph 1008.7mb 76f 86f
3:00 11 14 mph 1008.8mb 76f 87f
2:54 8 14 mph 1008.8mb 76f 87f
2:48 6 13 mph 1008.8mb 76f 87f
2:42 13 15 mph 1008.8mb 75f 87f
2:36 8 11 mph 1008.8mb 75f 87f
2:30 11 13 mph 1008.9mb 75f 87f
2:24 8 10 mph 1008.9mb 75f 87f
2:18 7 9 mph 1008.9mb 75f 87f
2:12 3 8 mph 1008.9mb 75f 87f
2:06 5 11 mph 1009mb 75f 87f
2:00 10 13 mph 1009mb 75f 87f
1:54 5 14 mph 1009mb 75f 87f
1:48 10 14 mph 1009mb 75f 87f
1:42 10 14 mph 1009.1mb 75f 87f
1:36 8 11 mph 1009mb 75f 87f
1:30 6 14 mph 1009.1mb 75f 87f
1:24 9 13 mph 1009.1mb 75f 86f
1:18 7 10 mph 1009.1mb 75f 86f
1:12 6 10 mph 1009.2mb 75f 86f
1:06 10 13 mph 1009.2mb 75f 86f
1:00 7 14 mph 1009.3mb 75f 87f
12:54 9 13 mph 1009.2mb 75f 86f
12:48  -  mph 1009.3mb 75f 86f
12:42  -  mph 1009.4mb 75f 86f
12:36  -  mph 1009.4mb 75f 86f
12:30 8 9 mph 1009.4mb 75f 85f
12:24 7 8 mph 1009.4mb 75f 86f
12:18 3 11 mph 1009.5mb 75f 86f
12:12 7 11 mph 1009.5mb 75f 85f
12:06 2 7 mph 1009.6mb 75f 86f
12:00 6 9 mph - 75f 85f
11:54 6 10 mph - 75f 85f
11:48 8 11 mph 1009.6mb 75f 85f
11:42 7 10 mph 1009.6mb 75f 84f
11:36 6 11 mph 1009.7mb 75f 84f
11:30 6 10 mph 1009.7mb 75f -
11:24 3 7 mph 1009.8mb 74f -
11:18 3 9 mph 1009.9mb 74f 83f
11:12 5 9 mph 1010mb 74f 83f
11:06 8 9 mph 1010mb 74f 82f
11:00 3 5 mph 1010.1mb - -
10:54 3 5 mph 1010.1mb - -
10:48 2 3 mph 1010.1mb 74f 82f
10:42 2 7 mph 1010.2mb 74f 81f
10:36 5 7 mph 1010.2mb 74f 81f
10:30 2 3 mph 1010.2mb 74f 81f
10:24 1 2 mph 1010.2mb 74f 80f
10:18 1 2 mph 1010.1mb - 80f
10:12 1 2 mph 1010.1mb - 80f
10:06 1
mph
1010.1mb - 80f
10:00 1 2 mph 1010.1mb 74f 79f
9:54 1 2 mph 1010.1mb 74f 79f
9:48 1 2 mph 1010.2mb 75f 79f
9:42 2
mph
1010.1mb 75f 78f
9:36 1 2 mph 1010.1mb 75f 79f
9:30 2
mph
1010.1mb 75f -
9:24 2 6 mph 1010.1mb 75f -
9:18 3 6 mph 1010mb 75f 79f
9:12 5 6 mph 1010.1mb 75f 78f
9:06 3 5 mph 1010.1mb 75f 76f
9:00 2 3 mph 1010.1mb 75f 76f
8:54 2 3 mph 1010mb 75f 76f
8:48 2 5 mph 1010mb 76f 76f
8:42 5 7 mph 1010.1mb 76f 77f
8:36 2 6 mph 1010.1mb 76f 76f
8:30 2 5 mph 1010.1mb 76f 76f
8:24 3 5 mph 1010.1mb 75f 75f
8:18 2 7 mph 1010.1mb 75f 75f
8:06 5 6 mph - - -
8:00 3 5 mph 1010mb 75f 74f
7:54  -  3 mph 1010mb 75f 73f
7:48  -  3 mph 1009.9mb 75f 73f
7:42 2 3 mph 1009.9mb 75f 73f
7:36 2 5 mph 1010mb 75f 73f
7:30 3 5 mph 1010mb 75f 72f
7:24 2 5 mph 1009.9mb 75f 72f
7:18 2 3 mph 1010mb 75f 72f
7:12 2 3 mph 1009.9mb 75f 72f
7:06 1 2 mph 1009.8mb 75f 72f
7:00 1 2 mph 1009.7mb 75f 71f
6:54  -  2 mph 1009.7mb 75f 71f
6:48 2 3 mph 1009.6mb 75f 71f
6:42 2 3 mph 1009.5mb 76f 71f
6:36 1 2 mph 1009.6mb 76f 71f
6:30  -  2 mph 1009.6mb 76f 71f
6:24 2 3 mph 1009.5mb 76f 71f
6:18 2 3 mph 1009.4mb 76f 71f
6:12  -  2 mph 1009.5mb 76f 71f
6:06  -  1 mph 1009.4mb 76f 71f
6:00  -  1 mph 1009.3mb 76f 71f
5:54  -  2 mph 1009.4mb 76f 71f
5:48 1 2 mph 1009.5mb 76f 70f
5:42 1 2 mph 1009.4mb 76f 70f
5:36  -  1 mph 1009.4mb 76f 70f
5:30  -  2 mph 1009.4mb 76f 71f
5:24 1 2 mph 1009.3mb 76f 71f
5:18  -  2 mph 1009.3mb 76f 71f
5:12 1 2 mph 1009.4mb 76f 71f
5:06 2
mph
1009.5mb 76f 71f
5:00 2
mph
1009.5mb 76f 70f
4:54 2
mph
1009.5mb 76f 70f
4:48 1 2 mph 1009.5mb 76f 70f
4:42 1 2 mph 1009.5mb 76f 71f
4:36 3 5 mph 1009.5mb 76f 71f
4:30 3
mph
1009.4mb 76f 71f
4:24 2 3 mph 1009.4mb 76f 71f
4:18 2 3 mph 1009.5mb 76f 71f
4:12 3
mph
1009.5mb 76f 71f
4:06 3
mph
1009.4mb 76f 72f
4:00 2 3 mph 1009.4mb 76f 72f
3:54 2 3 mph 1009.4mb 76f 72f
3:48 2 3 mph 1009.5mb 76f 72f
3:42 2
mph
1009.6mb 76f 72f
3:36  -  1 mph 1009.6mb 76f 73f
3:30 1 3 mph 1009.5mb 76f 73f
3:24 1 2 mph 1009.6mb 76f 73f
3:18 2 3 mph 1009.7mb 76f 73f
3:12 2 3 mph 1009.7mb 76f 73f
3:06 2 3 mph 1009.8mb 76f 73f
3:00 2 5 mph 1009.8mb 76f 73f
2:54 2 6 mph 1009.8mb 76f 73f
2:48  -  mph - 76f 73f
2:42  -  mph - 76f 73f
2:36  -  mph - 76f 73f
2:30 1 3 mph 1009.7mb 76f 73f
2:24 1 2 mph 1009.8mb 76f 73f
2:18 2 6 mph 1009.8mb 76f 73f
2:12 5 7 mph 1009.8mb 76f 74f
2:06 5 6 mph 1009.8mb 76f 74f
2:00 5 6 mph 1009.9mb 76f 74f
1:54 3 6 mph 1010mb 76f 74f
1:48 2 3 mph 1010.1mb 76f 74f
1:42 3 5 mph 1010.1mb 76f 74f
1:36 2 3 mph 1010.1mb 76f 74f
1:30 2 5 mph 1010.1mb 75f 74f
1:24 5 6 mph 1010.2mb 75f 74f
1:18 6 8 mph 1010.2mb 75f 74f
1:12 5 7 mph 1010.2mb 75f 74f
1:06 6 8 mph 1010.2mb 75f 74f
1:00 6 8 mph 1010.2mb 75f 74f
12:54 8 10 mph 1010.2mb 75f 74f
12:48 1 5 mph 1010.3mb 75f 74f
12:42  -  2 mph 1010.3mb 75f 74f
12:36  -  3 mph 1010.3mb 75f 74f
12:30 2 3 mph 1010.3mb 75f 74f
12:24 3 5 mph 1010.3mb 75f 74f
12:18 3
mph
1010.3mb 75f 74f
12:12 2 5 mph 1010.4mb 75f 75f
12:06 2 6 mph 1010.5mb 75f 75f
12:00 5 6 mph 1010.6mb 75f 75f
mer. 09/02 11:54 3 6 mph 1010.6mb 75f 75f
11:48 3 5 mph 1010.7mb 75f 75f
11:42 3 6 mph 1010.6mb 75f 75f
11:36 2 5 mph 1010.6mb 75f 75f
11:30 2 6 mph 1010.7mb 75f 75f
11:24 2 6 mph 1010.8mb 75f 75f
11:18 3 5 mph 1010.8mb 74f 75f
11:12 2 5 mph 1010.7mb 74f 75f
11:06 3 5 mph 1010.8mb 74f 75f
11:00 3 5 mph 1010.9mb 74f 75f
10:54 2 5 mph 1010.9mb 74f 75f
10:48 3 5 mph 1010.8mb 74f 75f
10:42 3 6 mph 1010.9mb 74f 75f
10:36 2 6 mph 1010.9mb 74f 76f
10:30 2 6 mph 1011mb 74f 76f
10:24 5 8 mph 1011mb 74f 76f
10:18 5 7 mph 1011mb 74f 76f
10:12 3 6 mph 1011.2mb 74f 76f
10:06 6 7 mph 1011.1mb 74f 76f
10:00 5 7 mph 1011.1mb 74f 76f
9:54 5 7 mph 1011.2mb 74f 76f
9:48 6 8 mph 1011.1mb 74f 77f
9:42 6 8 mph 1011.1mb 74f 77f
9:36 3 5 mph 1011.2mb 74f 77f
9:30 2 3 mph 1011.2mb 75f 77f
9:24 3 6 mph 1011.2mb 75f 77f
9:18 2 7 mph 1011.2mb 75f 77f
9:12 3 9 mph 1011.1mb 75f 77f
9:06 6 9 mph 1011.2mb 75f 78f
9:00 6 7 mph 1011.1mb 75f -
8:54 7 10 mph 1011mb 75f -
8:48 7 10 mph 1011.1mb 75f 78f
8:42 6 11 mph 1011.1mb 75f 78f
8:36 8 11 mph 1011mb 76f 78f
8:30 8 10 mph 1011mb 76f 78f
8:24 9 13 mph 1011mb 76f 78f
8:18 7 11 mph 1011mb 76f 79f
8:12 9 15 mph 1011mb 76f 79f
8:06 9 15 mph 1011mb 76f 79f
8:00 11 14 mph 1010.9mb 76f 79f
7:54 10 14 mph 1010.9mb 76f 79f
7:48 9 15 mph 1010.9mb 76f 80f
7:42 13 16 mph 1010.8mb 76f 80f
7:36 8 11 mph 1010.8mb 76f 80f
7:30 8 13 mph 1010.8mb 76f 80f
7:24 10 18 mph 1010.7mb 76f 81f
7:18 13 17 mph 1010.7mb 76f 81f
7:12 13 16 mph 1010.6mb 76f 81f
7:06 10 16 mph 1010.6mb 76f 82f
7:00 10 17 mph 1010.6mb 76f 82f
6:54 11 16 mph 1010.5mb 76f 82f
6:48 11 17 mph 1010.5mb 76f 82f
6:42 11 16 mph 1010.4mb 76f 83f
6:36 11 17 mph 1010.4mb 76f 83f
6:30 13 17 mph 1010.4mb 76f 83f
6:24 13 16 mph 1010.5mb 76f 83f
6:18 11 16 mph 1010.5mb 76f 84f
6:12 13 17 mph 1010.5mb 76f 84f
6:06 10 16 mph 1010.5mb 76f 85f
6:00 14 17 mph 1010.5mb 76f 85f
5:54 11 17 mph 1010.6mb 77f 85f
5:48 9 16 mph 1010.5mb 77f 86f
5:42 11 15 mph 1010.5mb 77f 86f
5:36 8 15 mph 1010.5mb 77f 87f
5:30 11 15 mph 1010.5mb 77f 86f
5:24 11 15 mph 1010.5mb 77f 84f
5:18  -  mph - 77f 82f
5:12  -  mph - 77f 82f
5:06 8 14 mph 1010.6mb 77f 84f
5:00 9 14 mph 1010.6mb 77f 85f
4:54 8 11 mph 1010.6mb 77f 89f
4:48 9 11 mph 1010.5mb 77f 84f
4:42 7 13 mph 1010.7mb 77f 84f
4:36 5 10 mph 1010.8mb 77f 83f
4:30 3 11 mph 1010.8mb 77f 85f
4:24 7 15 mph 1010.9mb 77f 89f
4:18 7 10 mph 1010.9mb 77f 89f
4:12 3 13 mph 1011mb 77f 89f
4:06 7 13 mph 1011.1mb 76f 87f
4:00 13 16 mph 1011.2mb 76f 81f
3:54 10 17 mph 1011.2mb 76f 82f
3:48 15 16 mph 1011.2mb 76f 81f
3:42 11 18 mph 1011.4mb 76f 81f
3:36 11 16 mph 1011.5mb 76f 82f
3:30 11 16 mph 1011.6mb 76f 82f
3:24 15 20 mph 1011.7mb 76f 81f
3:18 16 20 mph 1011.8mb 76f 82f
3:12 15 20 mph 1011.9mb 76f 82f
3:06 13 21 mph 1011.8mb 76f 82f
3:00 14 17 mph 1011.9mb 76f 82f
2:54 7 16 mph 1011.9mb 76f 84f
2:48 15 17 mph 1011.9mb 76f 81f
2:42 9 14 mph 1012mb 76f 84f
2:36 15 17 mph 1012.1mb 75f 82f
2:30 10 14 mph 1012.3mb 75f 84f
2:24 5 15 mph 1012.3mb 75f 84f
2:18 11 17 mph 1012.3mb 75f 81f
2:12 14 17 mph 1012.4mb 75f 82f
2:06 9 16 mph 1012.5mb 75f 84f
2:00 10 15 mph 1012.5mb 75f 87f
1:54 5 15 mph 1012.5mb 75f 84f
1:48 8 14 mph 1012.6mb 75f 84f
1:42 7 14 mph 1012.7mb 75f 86f
1:36 8 13 mph 1012.7mb 75f 87f
1:30 9 14 mph 1012.7mb 75f 88f
1:24 13 17 mph 1012.8mb 75f 87f
1:18 6 15 mph 1012.9mb 75f 87f
1:12 7 14 mph 1013mb 75f 87f
1:06 9 16 mph 1013mb 75f 86f
1:00 8 16 mph 1013mb 75f 87f
12:54 10 16 mph 1013.2mb 75f 85f
12:48 10 16 mph 1013.2mb 75f 85f
12:42 11 14 mph 1013.4mb 75f 86f
12:36 7 14 mph 1013.4mb 75f 86f
12:30 6 14 mph 1013.5mb 75f 86f
12:24 10 13 mph 1013.5mb 75f 85f
12:18 10 15 mph 1013.6mb 74f 86f
12:12 6 9 mph 1013.6mb 74f 85f
12:06 5 9 mph 1013.8mb 74f 81f
12:00 6 11 mph 1013.8mb 74f 84f
11:54 11 15 mph 1013.9mb 74f 85f
11:48 6 10 mph 1013.8mb 74f 85f
11:42 9 15 mph 1014mb 74f 84f
11:36 2 9 mph 1014.1mb 74f 80f
11:30 8 10 mph 1014.2mb 74f 79f
11:24 8 13 mph 1014.2mb 74f 79f
11:18 8 11 mph 1014.3mb 74f 78f
11:12 8 11 mph 1014.4mb 74f 79f
11:06 10 13 mph 1014.5mb 74f 78f
11:00 10 13 mph 1014.5mb 74f 77f
10:54 10 13 mph 1014.6mb 74f 77f
10:48 11 13 mph 1014.6mb 74f 76f
10:42 10 13 mph 1014.7mb 75f 76f
10:36 10 11 mph 1014.8mb 75f 76f
10:30 9 10 mph 1014.7mb 74f 76f
10:24 9 14 mph 1014.8mb 74f 77f
10:18 8 9 mph 1014.8mb 74f -
10:12 3 7 mph 1014.8mb 74f -
10:06 5 9 mph 1014.8mb 74f -
10:00 5 8 mph 1014.8mb 74f 78f
9:54 3 7 mph 1014.9mb 74f 78f
9:48 3 8 mph 1014.8mb 74f 78f
9:42 5 8 mph 1014.9mb 74f 77f
9:36 7 8 mph 1014.9mb 74f 77f
9:30 6 7 mph 1014.9mb 74f 76f
9:24 3 6 mph 1014.9mb 74f 76f
9:18 5 8 mph 1015mb 74f 75f
9:12 5 8 mph 1015mb 74f 75f
9:06 3 8 mph 1015.1mb 74f 74f
9:00 5 8 mph 1015.1mb 74f 74f
8:54 5 7 mph 1015.2mb 74f 74f
8:48 3 7 mph 1015.2mb 74f 74f
8:42 3 7 mph 1015.2mb 74f 73f
8:36 6 7 mph 1015.3mb 74f 72f
8:30 3 6 mph 1015.4mb 74f 72f
8:24 3 6 mph 1015.4mb 74f 72f
8:18 5 7 mph 1015.4mb 74f 71f
8:12 3 6 mph 1015.4mb 74f 71f
8:06 5 6 mph 1015.4mb 74f 71f
8:00 3 6 mph 1015.3mb 74f 71f
7:54 3 6 mph 1015.3mb 74f 71f
7:48 3 6 mph 1015.3mb 74f 70f
7:42 5 6 mph 1015.4mb 74f 70f
7:36 5 7 mph 1015.5mb 74f 69f
7:30 3 7 mph 1015.5mb 74f 69f
7:24 5 7 mph 1015.5mb 74f 69f
7:18 5 7 mph 1015.5mb 74f 69f
7:12 2 5 mph 1015.4mb 74f 68f
7:06 2 5 mph 1015.4mb 75f 68f
7:00 5 6 mph 1015.3mb 75f 68f
6:54 3 5 mph 1015.4mb 74f 68f
6:48 3 5 mph 1015.4mb 75f 67f
6:42 3 5 mph 1015.3mb 75f 67f
6:36 3 5 mph 1015.3mb 75f 67f
6:30 3 5 mph 1015.2mb 75f 67f
6:24 5
mph
1015.2mb 75f 67f
6:18 5
mph
1015.1mb 75f 67f
6:12 3 5 mph 1015.2mb 75f 67f
6:06 3 5 mph 1015.2mb 75f 67f
6:00 3 5 mph 1015.2mb 75f 67f
5:54 3 5 mph 1015.2mb 75f 67f
5:48 3
mph
1015.2mb 75f 67f
5:42 2 3 mph 1015.2mb 75f 67f
5:36 2 3 mph 1015.1mb 75f 67f
5:30 3 5 mph 1015.1mb 75f 67f
5:24 3 5 mph 1015.1mb 75f 67f
5:18 3 5 mph 1015.1mb 76f 67f
5:12 3 5 mph 1015.1mb 76f 67f
5:06 3 5 mph 1015.1mb 76f 67f
5:00 3
mph
1015.1mb 76f 67f
4:54 3 5 mph 1015.2mb 76f 67f
4:48 2 5 mph 1015.2mb 76f 67f
4:42 5 6 mph 1015.2mb 76f 67f
4:36 3 5 mph 1015.2mb 76f 67f
4:30 3 5 mph 1015.3mb 75f 67f
4:24 2 5 mph 1015.3mb 75f 67f
4:18 5 6 mph 1015.3mb 76f 67f
4:12 3 6 mph 1015.3mb 76f 67f
4:06 5 6 mph 1015.3mb 76f 67f
4:00 5 6 mph 1015.3mb 76f 67f
3:54 5 6 mph 1015.4mb 76f 67f
3:48 5 6 mph 1015.4mb 76f 67f
3:42 5 6 mph 1015.5mb 76f 67f
3:36 6
mph
1015.5mb 76f 68f
3:30 3 6 mph 1015.6mb 76f 68f
3:24 3 6 mph 1015.7mb 76f 68f
3:18 3 6 mph 1015.8mb 76f 68f
3:12 5 6 mph 1015.8mb 76f 68f
3:06 3 6 mph 1015.9mb 76f 68f
3:00 3 7 mph 1015.9mb 76f 68f
2:54 5 6 mph 1016mb 76f 68f
2:48 2 6 mph 1015.9mb 76f 68f
2:42 3 5 mph 1015.9mb 76f 68f
2:36 3 5 mph 1015.9mb 76f 68f
2:30 3 6 mph 1016mb 75f 68f
2:24 5 6 mph 1016mb 75f 68f
2:18 3 5 mph 1016.1mb 76f -
2:12 3 5 mph 1016.1mb 75f -
2:06 3 6 mph 1016.2mb 75f -
2:00 3 6 mph 1016.2mb 75f 68f
1:54 5 6 mph 1016.3mb 75f 69f
1:48 3 6 mph 1016.3mb 75f 69f
1:42 5 6 mph 1016.3mb 75f 69f
1:36 5
mph
1016.4mb 75f 69f
1:30 2 5 mph 1016.5mb 75f 69f
1:24 3 5 mph 1016.4mb 75f 69f
1:18 3 5 mph 1016.4mb 75f 69f
1:12 2 3 mph 1016.4mb 75f 69f
1:06 2 5 mph 1016.5mb 75f 69f
1:00 5 7 mph 1016.5mb 75f 69f
12:54 5 7 mph 1016.5mb 75f 69f
12:48 5 7 mph 1016.5mb 75f 70f
12:42 3 6 mph 1016.6mb 75f 70f
12:36 3 5 mph 1016.5mb 75f 70f
12:30 3 7 mph 1016.6mb 75f 70f
12:24 6 7 mph 1016.7mb 75f 70f
12:18 5 7 mph 1016.6mb 75f 70f
12:12 3 5 mph 1016.7mb 75f 70f
12:06 3 6 mph 1016.6mb 74f 70f
12:00 5 6 mph 1016.5mb 74f 70f
mar. 09/01 11:54 5 7 mph 1016.5mb 74f 71f
11:48 5
mph
1016.6mb 74f 71f
11:42 5 6 mph 1016.6mb 74f 71f
11:36 5 6 mph 1016.6mb 74f 71f
11:30 5 7 mph 1016.6mb 74f 71f
11:24 2 5 mph 1016.6mb 74f 71f
11:18 3 6 mph 1016.6mb 74f 71f
11:12 3 6 mph 1016.6mb 74f 71f
11:06 5 7 mph 1016.6mb 74f 71f
11:00 6 8 mph 1016.6mb 74f 71f
10:54 6 9 mph 1016.6mb 74f 71f
10:48 6 8 mph 1016.7mb 74f 71f
10:42 6 9 mph 1016.7mb 74f 71f
10:36 5 6 mph 1016.8mb 74f 72f
10:30 5 8 mph 1016.8mb 74f 72f
10:24 3 8 mph 1016.7mb 74f 72f
10:18 5 7 mph 1016.7mb 74f 73f
10:12 6 7 mph 1016.7mb 74f 73f
10:06 5 7 mph 1016.7mb 74f 73f
10:00 5 8 mph 1016.7mb 74f 73f
9:54 7 8 mph 1016.7mb 74f 73f
9:48 7 8 mph 1016.7mb 74f 73f
9:42 6 7 mph 1016.7mb 74f 73f
9:36 5 6 mph 1016.6mb 74f 73f
9:30 6 8 mph 1016.6mb 74f 73f
9:24 7 9 mph 1016.7mb 74f 73f
9:18 7 10 mph 1016.6mb 74f 74f
9:12 7 9 mph 1016.6mb 74f 74f
9:06 8 10 mph 1016.6mb 74f 74f
9:00 7 11 mph 1016.6mb 74f 74f
8:54 8 10 mph 1016.6mb 74f 74f
8:48 6 9 mph 1016.5mb 74f 74f
8:42 7 9 mph 1016.5mb 74f 74f
8:36 8 10 mph 1016.4mb 74f 74f
8:30 7 9 mph 1016.2mb 74f 74f
8:24 6 8 mph 1016.2mb 74f 75f
8:18 7 10 mph 1016.1mb 74f 75f
8:12 8 11 mph 1016mb 74f 75f
8:06 7 9 mph 1016mb 74f 75f
8:00 8 10 mph 1015.9mb 74f 75f
7:54 8 11 mph 1015.8mb 74f 75f
7:48 10 13 mph 1015.7mb 74f 75f
7:42 11 14 mph 1015.7mb 74f 75f
7:36 9 11 mph 1015.7mb 74f 75f
7:30 10 13 mph 1015.6mb 74f 75f
7:24 10 13 mph 1015.6mb 74f 75f
7:18 9 11 mph 1015.5mb 74f 76f
7:12 9 11 mph 1015.5mb 75f 76f
7:06 11 14 mph 1015.5mb 75f 76f
7:00 10 13 mph 1015.5mb 75f 76f
6:54 13 15 mph 1015.5mb 75f 76f
6:48 11 15 mph 1015.4mb 75f 77f
6:42 9 15 mph 1015.4mb 75f 77f
6:36 11 13 mph 1015.4mb 75f 77f
6:30 9 13 mph 1015.4mb 75f 77f
6:24 13 16 mph 1015.3mb 75f 77f
6:18 14 17 mph 1015.4mb 75f 77f
6:12 13 20 mph 1015.3mb 74f 77f
6:06 16 18 mph 1015.3mb 74f 77f
6:00 15 17 mph 1015.3mb 74f 77f
5:54 15 17 mph 1015.2mb 74f 77f
5:48 13 15 mph 1015.3mb 74f 78f
5:42 13 16 mph 1015.2mb 74f 78f
5:36 13 17 mph 1015.2mb 74f 78f
5:30 13 16 mph 1015.3mb 74f 78f
5:24 11 15 mph 1015.3mb 74f 80f
5:18 11 15 mph 1015.3mb 74f 80f
5:12 11 17 mph 1015.3mb 74f 80f
5:06 14 16 mph 1015.3mb 75f 80f
5:00 13 16 mph 1015.3mb 75f 80f
4:54 15 18 mph 1015.4mb 75f 80f
4:48 11 16 mph 1015.4mb 75f 81f
4:42 15 20 mph 1015.4mb 75f 81f
4:36 11 17 mph 1015.3mb 75f 81f
4:30 14 17 mph 1015.3mb 75f 80f
4:24 14 16 mph 1015.2mb 75f 81f
4:18 13 16 mph 1015.2mb 75f 81f
4:12 14 16 mph 1015.2mb 75f 81f
4:06 14 16 mph 1015.2mb 75f 80f
4:00 13 15 mph 1015.1mb 75f 81f
3:54 13 15 mph 1015.2mb 75f 81f
3:48 10 13 mph 1015.2mb 75f 81f
3:42 11 13 mph 1015.2mb 75f 81f
3:36 10 13 mph 1015.2mb 75f 81f
3:30 10 14 mph 1015.3mb 75f 81f
3:24 13 14 mph 1015.3mb 75f 81f
3:18 13 14 mph 1015.4mb 75f 81f
3:12 10 16 mph 1015.3mb 75f 81f
3:06 13 15 mph 1015.4mb 74f 80f
3:00 10 14 mph 1015.4mb 74f 80f
2:54 10 14 mph 1015.4mb 74f 80f
2:48 9 13 mph 1015.5mb 74f 81f
2:42 6 13 mph 1015.6mb 74f 82f
2:36 8 14 mph 1015.6mb 74f 82f
2:30 11 13 mph 1015.7mb 74f 81f
2:24 10 13 mph 1015.8mb 74f 80f
2:18 8 11 mph 1015.8mb 74f 81f
2:12 7 10 mph 1015.8mb 74f 81f
2:06 8 11 mph 1015.9mb 74f 82f
2:00 3 7 mph 1015.9mb 74f 81f
1:54 5 7 mph 1015.9mb 74f 81f
1:48 5 7 mph 1015.9mb 74f 81f
1:42 2 3 mph 1016mb 74f 81f
1:36 3 6 mph 1016.1mb 74f 81f
1:30 2 6 mph 1016.1mb 74f 81f
1:24 5 8 mph 1016mb 74f 80f
1:18 5 7 mph 1016mb 74f 80f
1:12 5 7 mph 1016mb 74f 80f
1:06 6 7 mph 1016mb 74f 80f
1:00 5 6 mph 1016mb 74f 80f
12:54 5 6 mph 1016mb 74f 80f
12:48 3 5 mph 1016.1mb 74f 80f
12:42 3 5 mph 1016.2mb 74f 79f
12:36 1 5 mph 1016.2mb 74f 80f
12:30 2 5 mph 1016.2mb 74f 79f
12:24 3 5 mph 1016.3mb 74f 79f
12:18 3
mph
1016.3mb 74f -
12:12 2 5 mph 1016.3mb 74f -
12:06 2 3 mph 1016.3mb 74f -
12:00 3
mph
1016.3mb 74f 78f
11:54 2 6 mph 1016.3mb 74f 79f
11:48 3 6 mph - 74f 78f
11:42 5 6 mph - 74f 78f
11:36 2 6 mph - 74f 78f
11:30 5 7 mph 1016.5mb 74f 78f
11:24  -  3 mph 1016.4mb 74f 79f
11:18 2 6 mph 1016.5mb 74f 79f
11:12 5 6 mph 1016.5mb 74f 79f
11:06 5 7 mph 1016.6mb 74f 79f
11:00 5 9 mph 1016.6mb 74f 78f
10:54 2 6 mph 1016.7mb 74f 79f
10:48 3 8 mph 1016.7mb 74f 79f
10:42 5 8 mph 1016.7mb 74f 78f
10:36 3 7 mph 1016.7mb 74f 78f
10:30 5 8 mph 1016.6mb 74f 78f
10:24 5 8 mph 1016.6mb 74f 77f
10:18 5 8 mph 1016.6mb 74f 77f
10:12 6 9 mph 1016.5mb 73f 78f
10:06 6 9 mph 1016.5mb 73f 78f
10:00 5 10 mph 1016.4mb 73f 78f
9:54 5 9 mph 1016.4mb 73f 77f
9:48 6 8 mph 1016.3mb 73f 77f
9:42 3 8 mph 1016.2mb 73f 77f
9:36 6 9 mph 1016.2mb 73f 77f
9:30 3 9 mph 1016.2mb 73f 77f
9:24 6 9 mph 1016.1mb 73f 77f
9:18 7 11 mph 1016.1mb 73f 77f
9:12 6 9 mph 1016mb 73f 78f
9:06 7 13 mph 1016mb 73f 77f
9:00 7 13 mph 1015.9mb 73f 76f
8:54 10 15 mph 1015.9mb 73f 76f
8:48 7 9 mph 1015.9mb 73f 76f
8:42 7 11 mph 1015.8mb 73f 75f
8:36 5 8 mph 1015.9mb 73f 75f
8:30 3 10 mph 1015.9mb 73f 75f
8:24 10 15 mph 1015.8mb 73f 74f
8:18 6 14 mph 1015.8mb 73f 75f
8:12 6 14 mph 1015.7mb 73f 74f
8:06 10 14 mph 1015.6mb 73f 74f
8:00 6 14 mph 1015.7mb 73f 74f
7:54 10 15 mph 1015.6mb 73f 74f
7:48 7 14 mph 1015.6mb 73f 74f
7:42 8 15 mph 1015.6mb 74f 73f
7:36 6 14 mph 1015.6mb 74f 73f
7:30 6 10 mph 1015.6mb 74f 73f
7:24 3 7 mph 1015.5mb 74f 73f
7:18 5 11 mph 1015.5mb 74f 72f
7:12 6 9 mph 1015.5mb 74f 72f
7:06 3 7 mph 1015.5mb 74f 72f
7:00 6 8 mph 1015.5mb 74f 72f
6:54 2 5 mph 1015.4mb 74f 72f
6:48 3 6 mph 1015.4mb 74f 72f
6:42 3 6 mph 1015.4mb 74f 72f
6:36 2 7 mph 1015.3mb 74f 71f
6:30 5 7 mph - - 71f
6:24 5 6 mph - - 71f
6:18 3 6 mph 1015.1mb 74f 71f
6:12 3 5 mph 1015mb 74f 71f
6:06 3 6 mph 1014.9mb 74f 71f
6:00 5 7 mph 1014.8mb 74f 72f
5:54 5 6 mph 1014.7mb 74f 72f
5:48  -  mph 1014.6mb 74f 72f
5:42  -  mph 1014.5mb 74f 72f
5:36  -  mph 1014.4mb 74f 72f
5:30 3 5 mph 1014.3mb 74f 72f
5:24 5 7 mph 1014.2mb 74f 72f
5:18 3 7 mph 1014.1mb 74f 72f
5:12 3 7 mph 1014.1mb 74f 72f
5:06 5 7 mph 1014mb 74f 72f
5:00 6 8 mph 1014mb 74f 73f
4:54 7 8 mph 1013.9mb 74f 73f
4:48 7 11 mph 1013.8mb 74f 73f
4:42 7 8 mph 1013.9mb 74f 73f
4:36 7 9 mph 1014mb 74f 73f
4:30 7 10 mph 1013.9mb 74f 73f
4:24 7 9 mph 1013.9mb 74f 73f
4:18 7 9 mph - 74f 73f
4:12 7 10 mph - 74f 73f
4:06 9 10 mph - 74f 73f
4:00 7 9 mph 1013.9mb 74f 73f
3:54 5 8 mph 1014mb 75f 73f
3:48 5 8 mph 1013.9mb 75f 74f
3:42 6 9 mph 1013.9mb 75f 74f
3:36 5 7 mph 1013.9mb 75f 74f
3:30 5 7 mph 1013.9mb 75f 74f
3:24 3 6 mph 1014mb 75f 74f
3:18 2 5 mph 1014mb 75f 74f
3:12 2 5 mph 1013.9mb 75f 75f
3:06 3 5 mph 1013.9mb 75f 75f
3:00 3 7 mph 1013.9mb 75f 75f
2:54 3 6 mph 1013.9mb 75f 75f
2:48 6 7 mph 1013.9mb 75f 75f
2:42 3 8 mph 1013.9mb 75f 75f
2:36 5 6 mph 1013.7mb 75f 75f
2:30 5 7 mph 1013.7mb 75f 75f
2:24 6 7 mph 1013.7mb 75f 75f
2:18 6 7 mph 1013.7mb 75f 75f
2:12 2 5 mph 1013.8mb 75f 75f
2:06 2 7 mph 1013.8mb 75f 75f
2:00 5 8 mph 1013.6mb 75f 76f
1:54 3 6 mph 1013.7mb 75f 76f
1:48 3 6 mph 1013.7mb 75f 76f
1:42 5 8 mph 1013.6mb 75f 76f
1:36 7 9 mph 1013.8mb 75f 76f
1:30 7 10 mph 1013.7mb 75f 76f
1:24 7 9 mph 1013.7mb 75f 76f
1:18 5 9 mph 1013.7mb 75f 77f
1:12 6 9 mph 1013.6mb 74f 77f
1:06 7 8 mph 1013.6mb 74f 77f
1:00 6 13 mph 1013.6mb 74f -
12:54 9 11 mph 1013.5mb 74f -
12:48 8 13 mph 1013.5mb 74f 78f
12:42 10 13 mph 1013.4mb 74f 78f
12:36 9 15 mph 1013.4mb 74f 78f
12:30 9 13 mph 1013.3mb 74f 78f
12:24 6 9 mph 1013.3mb 74f 78f
12:18 6 9 mph 1013.2mb 74f 78f
12:12 6 9 mph 1013.2mb 74f 78f
12:06 6 9 mph 1013mb 74f 78f
12:00 7 13 mph - 74f 78f
lun. 08/31 11:54 7 11 mph - 74f 78f
11:48 7 10 mph 1013mb 74f 78f
11:42 8 11 mph 1013.1mb 74f 78f
11:36 6 8 mph 1013mb 74f 78f
11:30 7 9 mph 1013mb 74f 78f
11:24 6 9 mph 1013mb 74f 78f
11:18 6 8 mph 1013mb 74f 79f
11:12 8 9 mph 1012.9mb 74f 79f
11:06 5 8 mph 1013mb 74f 79f
11:00 7 10 mph 1013mb 74f 79f
10:54 6 8 mph 1012.9mb 74f 79f
10:48 5 7 mph 1012.9mb 74f 80f
10:42 5 6 mph 1012.8mb 74f 80f
10:36 5 7 mph 1012.8mb 74f 80f
10:30 3 7 mph 1012.7mb 74f 80f
10:24 6 7 mph 1012.7mb 74f 80f
10:18 5 8 mph - 74f 80f
10:12 3 7 mph - 74f 80f
10:06 6 7 mph - 74f 81f
10:00 5 7 mph 1012.6mb 74f 81f
9:54 5 7 mph 1012.6mb 74f 81f
9:48 3 7 mph 1012.6mb 74f 81f
9:42 3 7 mph 1012.6mb 74f 81f
9:36 5 7 mph 1012.6mb 74f 81f
9:30 5 8 mph 1012.6mb 74f 81f
9:24 5 6 mph 1012.6mb 74f 81f
9:18 5 7 mph 1012.6mb 74f -
9:12 6 7 mph 1012.5mb 74f -
9:06 6 8 mph 1012.6mb 74f -
9:00 5 7 mph 1012.6mb 74f 82f
8:54 6 7 mph 1012.5mb 74f 82f
8:48 3 7 mph 1012.4mb 74f 82f
8:42 5 8 mph 1012.3mb 74f 82f
8:36 6 8 mph 1012.4mb 74f 82f
8:30 7 9 mph 1012.3mb 74f 82f
8:24 6 9 mph 1012.3mb 74f 83f
8:18 7 8 mph 1012.2mb 74f 83f
8:12 5 8 mph 1012.1mb 74f 83f
8:06 6 8 mph 1012.1mb 74f 83f
8:00 7 9 mph 1012mb 74f 83f
7:54 6 9 mph 1012mb 73f 83f
7:48 6 8 mph 1011.9mb 73f 84f
7:42 6 8 mph 1011.9mb 73f 84f
7:36 6 7 mph 1011.8mb 73f 84f